Погода Геокчаы

Погода Геокчаы : погода сейчас, прогноз погоды и архив. Всё, что Вы хотите узнать о погоде Геокчаы!

Поиск расширенной информации на нашем сайте:

Другие новости

Новости СМИ2

Главная страница сайта

Новости сайта

03.07.2017

Напоминаем, что на нашем специализированном сайте Метеоцентр.Азия вы можете получить высокодетализированные автоматические прогнозы погоды по пунктам России, СНГ и мира в авиационном формате (включающие направление и скорость ветра, видимость, явления погоды, количество и форму облачности, нижнюю и верхнюю границу облачности).


Погода Геокчаы - сегодня

Время (UTC), дата Ветер
(°,м/с) 
Видим.   Явления Облачность Т
(°С)
Тd
(°С)
f(%) Тe
(°С)
Pmin
(гПа)
dP
(гПа)
Po
(мм)
O2
(г/м3)
Тmin Tmax R s Состояние
почвы
00 19.11.17 360 (С) 4000 м  дымка  ясно 
+10 +9.4 96 +10  1022.6  -0.7  758  293           
03 19.11.17 360 (С) 4000 м  дымка  4/0 
+9.5 +8.2 92 +10  1021.6  -1.1  757  294           
06 19.11.17 360 (С) 0200 м  туман  ?/?  
+6.5 +6.3 99 +7  1022.6  0.9  758  297  +9.2         
09 19.11.17 270 (З) 4000 м  дымка{туман}  4/0 средняя 
[Ac lent]
+12.4 +10.3 87 +14  1020.2  -2.1  757  290           
12 19.11.17 250 (З) 4000 м  дымка  8/0 средняя 
[Ac cast]
+12.6 +11.1 91 +16  1018.3  -1.9  755  289           
15 19.11.17 160 (Ю) 4000 м  дымка  8/8 600 м 
[Sc]
+9.6 +9 96 +11  1018.2  -0.2  755  292           
18 19.11.17 270 (З) 4000 м  дымка  8/8 600 м 
[Sc]
+7.7 +7 95 +9  1017.9  -0.3  755  295    +13.1       
21 19.11.17 270 (З) 4000 м  дымка  10/10 600 м 
[Sc]
+8 +7.8 99 +9  1017.2  -0.7  754  294           
00 20.11.17 320 (СЗ) 4000 м  дымка  8/0 средняя 
[Ac lent]
+7.8 +7.6 99 +9  1016.9  -0.3  754  294           
03 20.11.17 тихо ()   <0050 м  туман  ?/?  
+6.3 +6.3 100 +6  1015.8  -1.2  753  296           
06 20.11.17 090 (В) <0050 м  туман  ?/?  
+6.5 +6.5 100 +7  1016.5  0.7  754  296  +6.1         
09 20.11.17 180 (Ю) 4000 м  дымка{туман}  8/8 600 м 
[Sc]
+11.2 +9.4 89 +11  1014.6  -1.7  752  290           
12 20.11.17 250 (З) 20000 м    8/0 средняя 
[Ac trans]
+16.5 +11.3 71 +20  1013.4  -1  752  283           
15 20.11.17 250 (З) 20000 м    8/8 600 м 
[Sc]
+11.3 +8.6 83 +12  1013.4  752  289           
18 20.11.17 140 (ЮВ) 20000 м    4/0 средняя 
[Ac trans]
+9.1 +8.2 94 +10  1013.8  0.3  752  292    +16.7       
21 20.11.17 320 (СЗ) 20000 м    ясно 
+9.8 +7.3 84 +9  1012.7  -1.2  751  291           
00 21.11.17 270 (З) 20000 м    ясно 
+12.5 +6.8 68 +11  1011  -1.5  750  288           
03 21.11.17 290 (З) 20000 м    10/10 600 м 
[Sc]
+10 +5.6 74 +9  1009.9  -1.1  749  290           
06 21.11.17 320 (СЗ) 20000 м    8/8 600 м 
[Sc]
+12 +5.3 64 +11  1012.2  2.2  751  289  +8.8         
09 21.11.17 200 (Ю) 20000 м    8/8 600 м 
[Sc]
+16 +8.4 61 +17  1009.5  -2.5  749  284           
12 21.11.17 250 (З) 20000 м    6/6 600 м 
[Sc]
+16.6 +11.2 70 +21  1006.6  -2.8  754  284           
15 21.11.17 тихо ()   20000 м    3/0 верхняя 
[Ci fib]
+11 +9.2 89 +11  1004.6  -2.2  745  287           
18 21.11.17 200 (Ю) 20000 м    4/0 средняя 
[Ac trans]
+10.7 +8.6 87 +12  1004.1  -0.6  744  287    +17       
21 21.11.17 290 (З) 20000 м    ясно 
+11.4 +7.8 79 +12  1002.9  -1.1  744  286           
00 22.11.17 200 (Ю) 20000 м    ясно 
+9.8 +6.1 78 +11  1002  -1  743  288           
Время (UTC), дата Ветер
(°,м/с) 
Видим.   Явления Облачность Т
(°С)
Тd
(°С)
f(%) Тe
(°С)
Pmin
(гПа)
dP
(гПа)
Po
(мм)
O2
(г/м3)
Тmin Tmax R s Состояние
почвы

Для получения пояснительной информации подведите курсор к названию столбца.

ПОГОДА Геокчаы - архив

Всё, что Вы хотите узнать о погоде Геокчаы - удобно и подробно!

Выберите нужную дату (начиная с 1 января 2015* года) и нажмите кнопку "Найти".
Будут отображены архивные сводки погоды по пункту Геокчаы, начиная с указанной даты.


Отображать данные в формате CSV (для использования в таблицах Excel)


Внимание! Наш архив погоды предназначен исключительно для личного некоммерческого использования в познавательных целях. Если Вам необходимы официальные справки о состоянии погоды (для производственных, юридических, коммерческих и т.п. целей), обращайтесь в органы Росгидромета.

*Примечание: данная дата относится к архиву по метеостанциям СССР (Россия, СНГ, Балтия).
Архив по метеостанциям Зарубежной Европы и Азии (кроме Китая) хранится 10 дней, по другим регионам земного шара (Китай, Африка, Америка, Австралия, Океания) - 1 день.

Геокчаы - район местоположения метеостанции


Название, широта, долгота, высота метеостанции:
Геокчаы 40.6°ш. 47.8°д. 95 м над ур. моря [Азербайджан]

Дополнительная информация

В oтличие oт бoльшинства пoгoдных сайтoв мы публикуем пoдрoбную метеoинфoрмацию в детальнoм прoфессиoнальнoм фoрмате.

Характеристики температуры и влажнoсти вoздуха измеряются на высoте 2 м в тени вдали oт зданий и деревьев.
Скoрoсть ветра измеряется на высoте 10 м (на урoвне рoста челoвека скoрoсть ветра ниже в 1.5-2 раза). Если метеoстанция нахoдится в гoрoде или в лесу, тo скoрoсть ветра занижена на 2-4 м/с пo сравнению с oткрытым местoм. Скoрoсть ветра над акватoриями крупных рек и oзёр, а также на вершинах хoлмoв на 2-5 м/с выше, чем в oбычных услoвиях.
Атмoсфернoе давление в разных тoчках местнoсти мoжет значительнo oтличаться oт давления на метеoстанции, в зависимoсти oт услoвий рельефа (при пoдъёме на 10 м давление пoнижается примернo на 1 мм рт.ст.).